Location: Dehesa de la Cepeda
(40.6574°N, 4.3013°W)
Time: 18:08:16
(UTC+00:00)

Altair - All Passes

Search period start: 28 July 2021 00:00
Search period end: 07 August 2021 00:00
Orbit: 1501 x 1682 km, 47.2° (Epoch: 28 July)

Date Brightness Start Highest point End Pass type
(mag) Time Alt. Az. Time Alt. Az. Time Alt. Az.
28 Jul - 01:31:45 10° SSW 01:40:15 39° SE 01:48:33 10° ENE visible
28 Jul - 03:35:00 10° WSW 03:44:24 84° NNW 03:53:38 10° ENE visible
28 Jul - 05:40:45 10° W 05:49:50 58° N 05:58:52 10° ENE daylight
28 Jul - 07:46:11 10° WNW 07:55:25 76° NNE 08:04:42 10° ESE daylight
28 Jul - 09:51:09 10° WNW 09:59:46 47° SW 10:08:32 10° SSE daylight
28 Jul - 12:01:36 10° WSW 12:02:44 10° WSW 12:03:52 10° SW daylight
29 Jul - 01:06:50 10° SSW 01:15:10 36° SE 01:23:17 10° ENE visible
29 Jul - 03:09:47 10° WSW 03:19:12 88° NNW 03:28:27 10° ENE visible
29 Jul - 05:15:29 10° W 05:24:35 58° N 05:33:38 10° ENE daylight
29 Jul - 07:21:00 10° WNW 07:30:12 73° NNE 07:39:28 10° ESE daylight
29 Jul - 09:25:56 10° WNW 09:34:40 51° SW 09:43:33 10° SSE daylight
29 Jul - 11:34:34 10° WSW 11:37:43 12° WSW 11:40:53 10° SW daylight
30 Jul - 00:41:58 10° SSW 00:50:06 33° SE 00:58:00 10° ENE visible
30 Jul - 02:44:35 10° WSW 02:54:02 88° SSE 03:03:17 10° ENE visible
30 Jul - 04:50:12 10° W 04:59:21 59° N 05:08:24 10° ENE daylight
30 Jul - 06:55:48 10° WNW 07:05:00 71° NNE 07:14:13 10° ESE daylight
30 Jul - 09:00:44 10° WNW 09:09:34 55° SW 09:18:33 10° SE daylight
30 Jul - 11:08:29 10° W 11:12:41 14° WSW 11:16:58 10° SSW daylight
31 Jul - 00:17:09 10° S 00:25:02 30° SE 00:32:41 10° ENE visible
31 Jul - 02:19:24 10° SW 02:28:52 84° SSE 02:38:07 10° ENE visible
31 Jul - 04:24:55 10° W 04:34:06 60° N 04:43:10 10° ENE visible
31 Jul - 06:30:36 10° WNW 06:39:47 68° NNE 06:48:58 10° E daylight
31 Jul - 08:35:32 10° WNW 08:44:27 59° SW 08:53:30 10° SE daylight
31 Jul - 10:42:40 10° W 10:47:40 16° SW 10:52:44 10° SSW daylight
31 Jul - 23:52:22 10° S 23:59:58 27° SE 00:07:21 10° ENE visible
01 Aug - 01:54:13 10° SW 02:03:43 80° SSE 02:12:56 10° ENE visible
01 Aug - 03:59:38 10° W 04:08:51 61° N 04:17:56 10° ENE visible
01 Aug - 06:05:23 10° WNW 06:14:34 66° NNE 06:23:44 10° E daylight
01 Aug - 08:10:20 10° WNW 08:19:20 63° SW 08:28:26 10° SE daylight
01 Aug - 10:17:01 10° W 10:22:38 18° SW 10:28:21 10° SSW daylight
01 Aug - 23:27:38 10° S 23:34:54 25° SE 23:41:59 10° E visible
02 Aug - 01:29:04 10° SW 01:38:33 75° SSE 01:47:46 10° ENE visible
02 Aug - 03:34:21 10° W 03:43:37 62° N 03:52:43 10° ENE visible
02 Aug - 05:40:10 10° WNW 05:49:21 64° NNE 05:58:28 10° E daylight
02 Aug - 07:45:08 10° WNW 07:54:12 68° SW 08:03:21 10° SE daylight
02 Aug - 09:51:28 10° W 09:57:37 20° SW 10:03:51 10° S daylight
02 Aug - 23:02:57 10° S 23:09:51 22° SE 23:16:34 10° E visible
03 Aug - 01:03:55 10° SW 01:13:24 71° SE 01:22:36 10° ENE visible
03 Aug - 03:09:03 10° W 03:18:23 63° NNW 03:27:31 10° ENE visible
03 Aug - 05:14:55 10° WNW 05:24:07 63° NNE 05:33:13 10° E daylight
03 Aug - 07:19:57 10° WNW 07:29:04 72° SW 07:38:15 10° SE daylight
03 Aug - 09:25:59 10° W 09:32:35 23° SW 09:39:16 10° S daylight
03 Aug - 22:38:21 10° S 22:44:47 20° SE 22:51:05 10° E visible
04 Aug - 00:38:48 10° SW 00:48:16 66° SE 00:57:25 10° ENE visible
04 Aug - 02:43:47 10° W 02:53:09 65° NNW 03:02:18 10° ENE visible
04 Aug - 04:49:41 10° WNW 04:58:53 61° N 05:07:57 10° E visible
04 Aug - 06:54:46 10° WNW 07:03:57 77° SSW 07:13:08 10° SE daylight
04 Aug - 09:00:34 10° WNW 09:07:32 25° SW 09:14:36 10° S daylight
04 Aug - 22:13:50 10° SSE 22:19:45 18° SE 22:25:31 10° E visible
05 Aug - 00:13:42 10° SW 00:23:07 62° SE 00:32:14 10° ENE visible
05 Aug - 02:18:29 10° W 02:27:55 67° NNW 02:37:07 10° ENE visible
05 Aug - 04:24:26 10° WNW 04:33:38 60° N 04:42:42 10° E visible
05 Aug - 06:29:34 10° WNW 06:38:48 81° SSW 06:48:00 10° SE daylight
05 Aug - 08:35:11 10° WNW 08:42:30 28° SW 08:49:52 10° S daylight
05 Aug - 21:49:27 10° SSE 21:54:42 16° SE 21:59:51 10° E visible
05 Aug - 23:48:37 10° SW 23:58:00 58° SE 00:07:03 10° ENE visible
06 Aug - 01:53:12 10° WSW 02:02:42 69° NNW 02:11:55 10° ENE visible
06 Aug - 03:59:11 10° WNW 04:08:24 59° N 04:17:27 10° E visible
06 Aug - 06:04:23 10° WNW 06:13:39 85° SSW 06:22:51 10° ESE daylight
06 Aug - 08:09:51 10° WNW 08:17:27 30° SW 08:25:06 10° S daylight
06 Aug - 21:25:12 10° SSE 21:29:40 14° ESE 21:34:03 10° E visible
06 Aug - 23:23:34 10° SSW 23:32:52 54° SE 23:41:52 10° ENE visible
